Погода в Дугне

Россия / Калужская область     54°25′18″N   36°51′22″E
темп.,
°C
ветер,
м/с
пор.,
м/с
влажн.,
%
обл.,
%
осадки,
мм/ч
давл.,
гПа
погр.,
м
25 июля, вс
вс2500:00+15с225982 0.0 101832
03:00+11с22765 0.0 101910
06:00+13ссв00716 0.0 102010
09:00+19св11513 0.0 1020478
12:00+22ююв124252 0.0 10202159
15:00+21св3353100 0.0 1020176
18:00+21вюв115951 0.0 102160
21:00+15юв11650 0.0 102211
26 июля, пн
пн2600:00+14ю117148 0.0 102311
03:00+16юв2259100 0.0 102315
06:00+16ююв1161100 0.0 102315
09:00+18ююв1161100 0.0 1024114
12:00+23ююз245232 0.0 1023758
15:00+26юз344247 0.0 10222153
18:00+24юз235778 0.0 1022184
21:00+19ююз337499 0.0 102244
27 июля, вт
вт2700:00+17юз237437 0.0 102337
03:00+18зюз237577 0.0 102360
06:00+17з1184100 0.8 102313
09:00+22юз11664 0.8 1022317
12:00+26зюз22477 0.0 10221609
15:00+24зюз2255100 0.0 102024
18:00+20в347789 0.4 1020149
21:00+18ююв228227 1.6 102012
28 июля, ср
ср2800:00+17юз338883 0.7 101956
03:00+16юз33865 1.0 101830
06:00+16ююз2385100 0.0 101765
09:00+20ююв3475100 0.0 1016227
12:00+24зюз4557100 0.0 1015966
15:00+18юв3694100 3.2 1014263
18:00+19ююв51187100 0.4 1012596
21:00+18ююв379396 0.5 1009185
29 июля, чт
чт2900:00+18юз4996100 0.0 1009289
03:00+17з5119725 0.0 1008356
06:00+17з413930 0.0 1009381
09:00+23з610670 0.0 1008900
12:00+26зсз7104974 0.0 10081733
15:00+27зсз79425 0.0 10082381
18:00+26зсз69465 0.0 10081224
21:00+20зюз35650 0.0 100865